Tracking 19562 objects as of 23-Mar-2019
HD Live streaming from Space Station
objects crossing your sky now

DASH 1

Track DASH 1 now!
10-day predictions
DASH 1 is classified as:


NORAD ID: 589
Int'l Code: 1963-014D
Perigee: 3,525.2 km
Apogee: 3,772.7 km
Inclination: 87.3 °
Period: 166.4 minutes
Semi major axis: 10019 km
RCS: 1.0728 m2 (large)
Launch date: May 9, 1963
Source: United States (US)
Launch site: AIR FORCE WESTERN TEST RANGE (AFWTR)
aabbcc
Your satellite tracking list
Your tracking list is empty




NASA's NSSDC Master Catalog

Two Line Element Set (TLE):
1   589U 63014D   19080.41246613 +.00000002 +00000-0 -24399-3 0  9994
2   589 087.3158 083.6100 0123472 207.5903 151.8359 08.65575880764954
Source of the keplerian elements: AFSPC